Regional Weather Roundup
Issued by NWS

Home | Current Version | Previous Version | Text Only | Print | Product List | Glossary On
Versions: 1 2 3 4 5 6 7 8 9 10 11 12 13 14 15 16 17 18 19 20 21 22 23 24 25 26 27 28 29 30 31 32 33 34 35 36 37 38 39 40 41 42 43 44 45 46 47 48 49 50
000
ASUS43 KLSX 201659
RWRMO

WEATHER SUMMARY FOR MISSOURI
NATIONAL WEATHER SERVICE SPRINGFIELD MO
1200 PM CDT WED AUG 20 2014

NOTE: "FAIR" INDICATES FEW OR NO CLOUDS BELOW 12,000 FEET WITH NO
       SIGNIFICANT WEATHER AND/OR OBSTRUCTIONS TO VISIBILITY.
       CURRENT SKY AND/OR WEATHER CONDITIONS ARE NOT AVAILABLE FOR
       CHILLICOTHE AND FARMINGTON.

MOZ001>031-035>038-043-044-053-054-201800-
...NORTHERN AND WESTERN MISSOURI...

CITY           SKY/WX    TMP DP  RH WIND       PRES   REMARKS
KANSAS CTY INT MOSUNNY   88  75  65 SW10      29.89S HX  97
KANSAS C DTWN  SUNNY     91  70  49 S14       29.88S HX  96
LEE`S SUMMIT   SUNNY     87  71  58 SW9       29.92R HX  93
ST JOSEPH      SUNNY     86  74  67 S7        29.88R HX  94

$$
MOZ066>068-077>081-088>096-101>105-201800-
...SOUTHWEST MISSOURI...

CITY           SKY/WX    TMP DP  RH WIND       PRES   REMARKS
SPRINGFIELD    SUNNY     91  67  44 SW15      29.99S HX  94
JOPLIN         SUNNY     91  67  44 SW20G26   29.97S HX  94

$$
MOZ032>034-039>042-045>050-055>058-069>072-201800-
...CENTRAL MISSOURI...

CITY           SKY/WX    TMP DP  RH WIND       PRES   REMARKS
COLUMBIA       PTSUNNY   85  73  67 W8        29.97R HX  91
JEFFERSON CITY PTSUNNY   88  72  58 SW9       29.95R HX  94
ROLLA          PTSUNNY   87  69  54 W10       29.98R HX  91
SEDALIA        SUNNY     88  72  58 SW12      29.96R HX  94
OSAGE BEACH    SUNNY     90  72  55 SW8       29.96S HX  96

$$
MOZ051-052-059>065-201800-
...EAST CENTRAL MISSOURI...

CITY           SKY/WX    TMP DP  RH WIND       PRES   REMARKS
ST LOUIS INTL  CLOUDY    89  73  59 VRB3      29.98R HX  97
SPIRIT OF STL  PTSUNNY   85  74  69 CALM      29.96R HX  92
ST CHARLES     CLOUDY    84  74  71 CALM      29.96R HX  91

$$
MOZ072>076-082>087-097>100-106>115-201800-
...SOUTH CENTRAL AND SOUTHEAST MISSOURI...

CITY           SKY/WX    TMP DP  RH WIND       PRES   REMARKS
CAPE GIRARDEAU MOSUNNY   88  75  65 W3        29.98S HX  97
FARMINGTON     MOSUNNY   90  72  55 NW7       30.01R HX  96
POPLAR BLUFF   SUNNY     90  74  59 S9        29.98R HX  99
WEST PLAINS    SUNNY     88  70  55 VRB7      30.04R HX  93

$$



USA.gov is the U.S. government's official web portal to all federal, state and local government web resources and services.